Dewpoint
46 46 46 46 46 46 45 45 45 45 44 45 45 45 46 47 47 47 46 46 45 45 45 45 45 45 45 46 47 48 48 49 50 51 52 53 53 54 55 56 56 56 57 57 57 57 57 57 57 58 58 58 58 58 58 58 58 58 59 59 60 61 62 62 62 62 63 63 63 63 63 63 63 63 63 62 62 61 61 60 59 58 58 57 57 57
45 45 45 45 45 45 44 44 44 44 44 44 44 44 45 46 46 46 46 46 45 45 45 45 44 44 44 46 47 48 48 49 50 51 51 52 53 53 54 55 56 56 56 57 57 56 56 57 57 57 57 57 57 57 57 57 57 58 58 59 60 61 62 62 62 62 63 63 63 63 63 62 62 62 61 60 60 59 59 58 58 58 57 57 57 57
44 44 44 44 44 44 44 44 44 44 44 44 44 44 44 45 45 45 45 45 45 45 45 44 44 44 44 45 46 48 48 48 49 50 51 52 53 53 54 54 55 56 56 56 56 56 56 56 56 57 57 57 57 56 56 56 57 57 57 58 59 60 61 62 62 62 62 62 62 62 62 61 60 60 59 58 58 58 58 58 58 58 58 58 58 57
44 44 44 44 44 44 44 44 44 44 44 44 44 44 44 45 45 45 45 45 45 44 44 44 44 44 44 45 46 47 48 48 49 49 51 51 52 53 53 53 54 55 56 56 56 56 56 56 56 56 56 56 56 56 56 56 56 56 56 57 58 59 60 60 61 61 62 61 61 61 60 59 58 57 57 57 58 58 59 59 59 58 58 58 58 57
43 43 43 43 44 44 44 44 44 44 44 44 44 44 44 44 45 45 45 44 44 44 44 44 44 44 44 44 45 46 47 48 48 49 50 51 52 52 52 53 53 54 55 55 56 56 56 56 56 56 56 56 56 56 56 56 56 55 56 57 58 59 59 59 59 59 59 59 58 57 57 57 57 57 57 57 58 58 59 59 59 59 58 58 58 57
43 43 43 43 43 43 44 43 43 43 43 43 43 43 43 44 44 45 44 44 44 44 43 44 44 44 44 44 45 46 47 47 48 48 49 50 51 51 52 52 53 53 53 54 55 56 56 56 56 56 56 56 56 56 55 55 55 55 56 57 57 57 58 57 57 57 57 57 57 56 57 57 57 57 57 57 57 58 58 58 58 58 58 58 57 57
42 43 43 43 43 43 43 43 43 43 43 42 42 42 42 43 44 44 44 44 44 44 43 43 44 44 44 44 45 46 46 46 47 48 48 49 50 51 51 51 52 52 53 53 54 54 55 55 56 56 56 56 55 55 54 54 54 54 55 55 55 56 56 56 56 56 56 56 56 56 56 56 57 57 57 57 57 57 57 58 58 58 58 57 57 57
41 42 42 42 42 43 43 43 43 43 43 42 42 42 42 42 43 44 44 44 44 44 43 42 43 43 44 44 44 45 45 45 46 46 47 48 49 50 51 51 51 51 52 52 53 53 53 54 55 55 55 55 54 54 54 53 53 54 54 54 54 54 55 55 55 55 55 55 55 55 56 56 56 56 56 56 57 57 57 57 57 57 57 57 57 57
41 41 42 42 42 42 42 42 43 43 43 43 42 42 41 41 42 42 43 43 44 44 43 42 42 42 43 44 44 45 45 45 45 45 46 47 48 49 50 50 51 51 51 51 52 52 53 53 53 54 54 54 54 53 53 53 53 53 53 53 54 54 54 54 55 55 55 55 55 55 55 55 55 55 55 55 55 56 56 56 56 57 57 57 57 57
41 41 41 42 42 42 42 42 42 43 43 43 42 42 42 41 41 42 42 42 43 44 43 42 42 42 42 43 44 44 45 45 45 46 46 46 48 49 49 50 50 50 50 50 51 51 51 52 52 53 53 53 53 53 53 53 53 53 53 53 53 54 54 54 54 54 54 54 54 54 54 54 54 54 54 54 54 54 55 55 55 56 56 56 57 57
41 41 41 42 42 42 42 42 42 43 43 42 42 41 41 41 41 41 41 41 42 43 44 43 42 41 41 42 43 44 44 44 44 44 45 45 46 48 48 48 49 49 49 49 50 50 50 51 51 51 52 52 53 53 53 53 53 53 53 53 53 53 53 54 54 54 54 54 54 54 54 54 54 54 54 54 54 54 54 54 55 55 56 56 56 57
41 41 41 41 42 42 42 42 42 42 42 41 41 41 41 41 41 41 41 41 41 42 43 43 42 42 41 41 41 42 43 43 43 43 43 44 44 46 47 48 48 48 48 48 49 49 49 50 50 50 51 51 51 52 52 52 53 53 53 53 53 53 53 53 53 53 53 54 53 53 53 53 53 53 53 53 53 53 54 54 54 55 55 55 56 56
41 41 41 41 41 42 42 42 42 42 42 41 41 40 40 41 41 41 41 41 41 42 43 43 43 42 41 41 41 42 42 42 42 42 42 42 43 44 45 46 47 47 48 48 48 48 49 49 49 50 50 50 50 51 51 51 52 52 52 53 53 53 53 53 53 53 53 53 53 53 53 53 53 53 53 53 53 53 53 54 54 54 54 55 55 55
40 41 41 41 41 41 42 42 42 41 42 42 41 41 41 41 40 40 40 40 40 41 42 43 43 42 42 41 41 41 42 42 42 41 41 41 42 43 44 44 45 46 46 47 47 48 48 49 49 49 49 50 50 50 50 51 51 51 52 52 52 52 52 52 52 53 53 53 53 53 53 53 53 53 53 53 53 53 53 53 53 54 54 54 55 55
40 40 40 40 40 41 41 42 42 42 42 42 42 42 41 41 40 39 39 39 40 40 41 42 42 42 42 41 41 41 41 41 41 40 40 40 41 42 43 43 44 44 45 45 46 47 48 48 48 48 49 49 49 49 50 50 51 51 51 51 51 51 51 51 52 52 52 52 52 52 53 53 53 53 53 53 53 53 53 53 53 53 53 54 54 54
40 40 39 39 40 41 41 42 42 42 42 43 42 41 41 40 40 39 39 39 39 39 39 40 41 42 42 42 41 41 41 41 40 40 39 39 40 41 42 42 42 43 44 44 45 46 47 48 48 48 48 48 48 49 49 50 50 50 50 50 50 50 51 51 51 51 51 51 52 52 52 52 52 52 52 52 52 52 52 52 53 53 53 53 53 54
40 40 39 40 40 41 42 42 42 42 43 43 42 41 40 40 40 39 39 39 39 39 38 38 38 39 40 41 41 41 41 40 40 40 39 39 39 40 41 41 41 41 42 43 44 45 46 47 48 48 48 48 48 48 48 49 49 49 49 49 49 50 50 50 50 50 51 51 51 51 51 51 51 51 51 51 51 51 51 52 52 52 52 53 53 53
40 40 40 40 40 41 42 42 42 42 43 43 42 41 40 40 40 39 39 39 38 38 38 37 37 37 37 38 39 40 40 40 40 39 39 38 39 40 41 41 40 40 40 41 42 44 46 47 47 48 48 48 48 48 48 48 49 49 49 49 49 49 49 49 49 50 50 50 50 50 50 50 50 50 50 50 50 50 51 51 51 51 51 51 52 52
40 40 40 40 40 41 42 42 42 42 42 42 42 41 40 40 39 39 39 39 38 38 38 37 37 36 36 36 38 39 40 40 40 39 38 38 38 39 40 40 39 39 39 40 41 42 44 46 47 48 48 48 48 48 48 48 48 48 48 48 48 48 48 49 49 49 49 49 49 49 49 49 49 49 49 50 50 50 50 50 50 50 50 50 51 51
40 40 41 41 41 41 41 42 42 42 42 43 42 41 40 39 39 39 39 39 39 38 38 37 37 36 36 37 38 39 39 39 39 39 38 37 38 38 39 39 39 38 38 39 39 41 43 44 46 47 48 48 48 48 48 48 48 48 48 48 48 48 48 48 48 48 49 49 49 49 49 49 49 49 49 49 49 49 49 49 50 50 50 50 50 50
40 40 41 42 42 41 41 42 42 43 43 43 43 41 40 39 39 39 39 39 39 38 38 37 37 37 37 38 38 39 39 38 38 38 39 38 37 38 39 39 38 38 38 38 39 40 41 43 45 47 48 48 48 48 48 48 48 48 48 48 48 48 48 48 48 48 48 48 48 48 48 48 49 49 49 49 49 49 49 49 50 50 50 50 50 50
40 41 42 43 43 42 42 42 43 43 43 42 42 41 40 39 38 39 39 38 38 38 38 38 38 38 39 39 39 39 39 38 37 37 37 37 36 37 38 38 38 37 37 37 38 39 40 41 43 45 47 48 48 47 48 48 48 48 48 48 48 48 48 48 48 48 48 48 48 48 48 48 48 49 49 49 49 49 49 49 50 50 50 50 50 50
41 42 42 43 43 43 43 43 43 43 42 42 41 41 41 39 38 38 38 38 38 38 39 39 39 39 39 39 39 39 39 38 37 36 35 35 35 36 37 38 37 37 36 37 38 39 39 40 41 43 45 46 47 47 47 47 47 47 47 47 47 47 48 48 48 48 48 48 48 48 48 48 48 48 49 49 49 49 49 49 50 50 50 50 50 50
42 42 43 43 44 44 44 43 43 42 42 41 40 40 41 40 39 38 38 37 37 37 38 38 38 39 39 39 39 39 39 39 37 35 35 35 35 35 36 37 37 36 36 37 38 38 39 39 39 40 42 44 45 46 47 47 47 47 47 47 47 47 47 47 47 47 47 48 48 48 48 48 48 48 48 48 49 49 49 49 49 49 49 50 50 50
43 43 43 44 44 44 44 44 44 43 42 40 39 39 39 39 39 39 38 37 36 36 35 36 37 38 39 39 39 39 39 39 37 35 34 35 35 35 35 35 35 35 36 37 37 38 38 38 38 39 40 42 44 45 45 46 46 47 47 47 47 47 47 47 47 47 47 47 47 47 47 48 48 48 48 48 48 48 48 48 49 49 49 49 50 50
43 44 44 44 44 44 44 44 44 44 43 42 40 39 38 36 36 36 36 37 37 37 37 38 39 39 39 39 39 39 39 39 37 35 32 34 35 35 35 35 35 34 35 35 36 37 37 37 37 38 39 39 41 43 44 45 45 46 46 46 47 47 47 47 47 47 47 47 47 47 47 47 47 47 47 47 47 48 48 48 48 48 48 48 49 49
43 43 43 43 44 44 44 44 44 44 44 43 42 40 38 35 35 36 38 38 37 36 37 39 39 39 39 38 38 38 39 39 38 35 31 31 33 35 35 35 34 33 33 34 35 36 37 36 37 37 38 38 39 41 43 43 44 45 45 46 46 46 47 47 47 47 47 47 46 46 46 46 46 47 47 47 47 47 47 47 47 47 47 47 47 48
42 42 42 42 42 42 43 43 43 43 43 43 42 41 39 36 35 36 38 38 36 35 37 39 39 39 38 38 38 38 39 39 38 36 31 31 33 35 34 34 33 32 32 33 34 35 36 36 36 37 38 38 39 39 41 42 43 43 44 44 45 46 46 46 46 46 46 46 46 46 46 46 46 46 46 46 46 46 46 46 46 46 45 45 45 46
40 41 41 41 41 41 41 42 42 42 43 42 42 41 39 38 37 36 36 35 35 35 37 38 38 37 36 36 37 37 38 38 39 37 31 31 32 33 33 30 30 31 32 32 34 34 34 35 35 36 37 38 38 39 39 40 41 41 42 43 44 44 45 45 46 46 46 46 46 46 46 46 46 46 46 46 46 46 46 46 45 45 44 44 44 44
39 39 39 39 40 40 40 40 40 41 42 41 41 40 39 39 38 37 37 35 34 34 37 37 36 34 32 32 34 35 37 38 39 38 33 32 33 33 32 29 29 30 32 32 33 33 33 34 35 35 36 37 38 38 38 39 39 39 40 41 43 43 44 44 45 45 46 46 46 46 46 46 46 46 46 46 46 46 46 45 45 44 44 44 44 44
38 38 38 38 39 39 39 39 39 39 40 40 40 40 39 39 38 38 37 36 35 35 36 36 36 34 31 31 33 35 35 37 39 39 35 31 32 33 31 30 29 30 31 32 32 32 30 32 34 35 35 36 37 37 38 38 38 38 39 39 41 42 43 43 44 44 44 45 45 46 46 46 46 46 46 46 46 46 46 45 45 44 43 43 43 43
37 38 38 38 38 38 38 38 38 38 38 38 39 39 39 39 38 38 37 37 37 37 36 37 37 36 35 35 35 35 35 36 38 39 35 30 30 30 30 29 29 28 29 29 29 30 30 30 32 33 35 35 36 36 37 38 38 38 38 39 39 40 42 42 43 43 43 44 44 45 45 46 46 46 46 46 46 46 46 46 45 44 43 43 43 43
37 37 37 38 38 38 38 38 38 37 37 37 37 38 38 38 38 38 38 37 37 37 37 37 37 37 36 36 35 35 35 36 38 39 35 30 29 30 30 30 29 27 26 27 27 28 30 29 30 30 32 34 35 35 36 37 38 38 38 38 38 39 40 41 41 42 42 42 43 44 44 45 45 46 46 46 46 46 46 46 46 45 44 43 42 43
36 37 37 37 38 38 38 38 37 37 37 37 37 37 37 37 37 37 37 37 37 37 36 36 36 36 36 36 35 35 35 36 38 39 36 31 30 30 31 32 30 28 25 26 27 28 28 27 27 28 29 31 33 34 35 36 37 38 38 38 38 38 39 39 40 41 41 41 41 42 43 44 44 45 45 46 46 46 46 46 46 46 45 44 43 42
36 36 37 37 37 37 37 37 37 37 37 37 37 37 37 37 36 37 37 37 37 37 36 36 36 36 35 35 35 35 35 35 37 39 37 32 30 30 33 34 33 30 26 25 25 26 26 26 27 27 26 27 29 31 34 35 36 37 37 38 38 38 38 38 39 40 40 40 40 40 41 42 43 44 44 45 45 46 46 46 46 46 46 46 45 44
35 36 36 36 36 37 37 37 37 37 37 37 37 37 36 36 36 36 36 36 36 37 37 37 36 36 36 35 35 34 34 35 37 38 37 33 30 30 33 34 33 31 28 26 25 24 24 26 26 27 26 26 26 28 31 34 35 36 36 37 38 38 38 38 39 39 39 40 40 40 40 41 42 43 43 44 44 45 45 45 45 45 46 46 45 45
35 35 35 36 36 36 37 37 37 37 37 36 36 36 36 36 36 36 35 35 35 36 37 37 37 37 37 36 35 35 35 35 36 36 36 32 30 29 32 32 32 31 30 28 26 24 24 25 25 25 25 24 24 26 28 31 34 35 35 36 37 38 38 38 39 39 39 40 40 40 41 41 41 42 43 43 44 44 44 44 44 44 45 45 45 45
34 35 35 35 36 36 36 36 36 37 37 36 36 36 36 36 35 35 35 35 34 35 35 36 36 36 37 37 37 36 36 36 36 35 34 32 31 31 32 31 32 32 30 28 27 26 24 25 24 24 24 23 25 27 27 28 30 31 32 35 36 37 38 38 38 39 39 39 40 41 41 41 41 41 41 42 42 42 42 43 43 44 44 44 44 44
34 35 35 35 36 36 36 36 36 36 36 37 37 37 36 36 35 35 35 35 35 35 35 35 35 35 35 36 36 37 37 37 36 35 33 32 32 32 33 32 32 31 30 27 26 25 24 23 23 23 24 24 25 25 24 24 26 27 28 31 34 36 38 38 39 39 39 39 39 40 41 41 40 40 41 40 41 41 41 41 42 42 42 42 42 43
34 35 35 36 36 36 36 36 36 36 36 37 37 37 37 37 36 35 35 36 36 35 34 33 34 35 35 36 36 36 36 37 36 35 34 33 32 32 33 33 33 32 32 30 28 27 25 24 23 23 24 22 23 24 24 25 28 30 30 31 33 35 37 38 38 38 38 39 39 40 40 40 40 41 41 41 41 41 41 41 41 42 42 41 41 41
34 35 35 36 36 36 37 37 36 36 36 36 36 36 36 36 36 35 35 35 35 35 35 32 32 33 34 35 35 35 35 36 36 36 34 33 33 33 34 35 35 34 32 32 32 30 30 27 26 23 21 21 24 26 28 29 31 33 30 30 32 34 35 37 38 38 38 39 39 39 40 40 40 40 40 41 41 41 42 42 42 42 42 42 41 41
35 35 35 35 36 36 36 36 36 37 36 36 35 35 35 35 35 34 33 35 35 35 34 32 31 31 33 34 35 35 35 35 36 36 35 34 33 33 33 35 35 35 33 34 34 33 31 30 28 26 25 25 26 26 27 29 30 31 30 29 29 30 32 35 37 37 38 38 39 39 40 40 40 40 40 40 40 41 41 41 42 42 42 42 42 42
35 35 35 35 36 36 36 37 37 36 36 35 35 35 35 35 35 34 33 34 35 35 34 31 30 30 31 33 34 34 35 35 35 35 36 35 35 34 33 34 35 35 35 35 35 35 35 35 33 31 30 29 28 28 27 29 30 31 32 31 29 28 29 33 35 37 37 38 38 38 38 39 39 39 40 40 40 40 40 41 41 42 42 42 42 42
35 35 35 35 35 36 36 36 35 35 35 34 35 35 35 35 35 35 32 31 32 33 33 29 27 27 31 33 33 34 34 35 35 35 35 37 36 35 33 33 34 35 34 35 35 35 35 35 34 34 34 33 31 30 27 28 30 32 33 33 31 30 30 32 34 35 36 37 38 38 37 37 38 39 39 39 39 39 40 40 40 41 42 42 42 42
35 35 35 36 36 36 35 35 35 35 35 35 35 35 35 35 36 36 33 31 31 30 29 27 26 28 32 32 33 33 34 34 35 35 35 36 37 36 34 34 34 34 34 34 34 34 34 34 34 34 34 34 33 31 30 30 31 32 34 34 34 34 34 35 35 35 35 36 37 37 37 36 36 37 38 39 39 39 39 40 40 40 41 41 42 42
35 35 35 35 35 35 35 35 34 35 35 35 36 36 36 36 36 36 35 33 32 31 29 26 26 28 31 32 32 33 33 33 34 35 35 35 35 35 35 34 34 34 34 34 33 32 31 33 33 32 32 31 32 32 32 31 31 31 32 34 35 35 35 35 35 35 35 35 36 36 36 35 35 36 38 38 39 39 39 40 40 40 40 41 41 42
35 35 35 35 35 35 34 34 34 34 35 35 35 35 35 35 35 35 35 35 35 33 30 29 28 28 30 31 31 32 32 33 33 34 34 35 35 35 35 34 33 32 32 33 33 33 33 32 31 29 26 27 30 32 32 32 31 31 31 31 33 34 35 35 35 35 35 35 35 35 35 34 35 36 37 38 38 39 39 39 40 40 41 41 41 42
35 35 35 34 34 34 34 34 34 34 34 35 35 35 35 35 35 35 35 35 34 33 31 30 30 31 31 31 32 32 32 32 33 33 34 34 34 35 34 33 31 30 30 30 31 32 32 31 29 27 25 26 28 30 32 32 31 31 30 30 31 33 35 35 35 35 36 36 35 34 34 33 34 35 36 37 37 38 38 39 40 40 41 41 41 41
34 35 35 33 33 34 33 33 33 33 34 34 34 34 35 35 36 35 35 35 34 32 30 29 30 31 32 32 32 32 33 32 32 33 33 33 34 34 33 31 30 29 27 27 27 28 30 32 33 33 31 29 28 29 32 32 31 31 30 29 29 31 33 35 35 36 36 36 35 34 34 34 33 34 35 36 36 37 37 38 39 40 40 41 41 41
34 34 34 33 33 33 33 33 33 33 33 33 33 34 34 35 35 35 35 35 34 33 31 29 29 30 32 32 32 32 32 32 32 32 33 33 34 34 34 32 31 29 27 25 26 26 26 29 31 34 36 35 34 32 32 32 31 30 29 29 28 29 31 34 35 36 36 36 35 35 35 35 34 34 35 35 36 36 37 37 38 39 40 40 41 41
34 34 34 33 32 32 33 33 33 33 33 33 33 34 34 34 34 34 34 34 34 33 32 31 31 31 32 32 32 32 32 32 32 32 32 33 34 34 34 34 31 28 25 24 24 25 25 26 26 28 32 36 36 35 34 32 31 30 28 30 29 28 30 33 35 35 36 36 35 35 35 35 35 35 35 35 35 35 36 36 37 38 39 39 40 40